Flag for United Kingdom Weather past 2 weeks in Perth, Scotland, United Kingdom

Now
65 °F

Mild.


Feels Like: 65 °F
Forecast: 46 / 64 °F
Wind: 3 mph from South

Location: Strathallan

Current Time: Jul 5, 2015 at 3:08:21 PM

Latest Report: Jul 5, 2015 at 2:00 PM


Visibility: 31 mi

Pressure: 29.95 "Hg

Humidity: 57%

Dew point: 49 °F

Location of PerthLocation

Historic Weather in Perth — Graph

°F

Perth temperature yesterday

Maximum temperature yesterday: 65 °F (at 8:00 PM)
Minimum temperature yesterday: 54 °F (at 8:00 AM)
Average temperature yesterday: 57 °F

Past Weeks' High & Low Weather Summary

 TemperatureHumidityPressure
High74 °F (Jun 30, 5:00 PM)100% (Jun 23, 6:00 AM)30.27 "Hg (Jun 23, 6:00 AM)
Low36 °F (Jun 23, 5:00 AM)42% (Jul 3, 4:00 PM)29.76 "Hg (Jun 28, 9:00 AM)
Average58 °F81%29.98 "Hg
* Reported Jun 20 1:00 PM — Jul 5 1:00 PM, Perth, Weather by CustomWeather, © 2015

Note: Actual official high and low records may vary slightly from our data, if they occured in-between our weather recording intervals... More about our weather records

Advertising

Perth weather history for previous 24 hours

 ConditionsComfort  
Time TempWeatherWind HumidityBarometerVisibility
1:00 PM
Sun, Jul 5
65 °FMild.5 mph54%29.96 "Hg22 mi
12:00 PM64 °FMild.3 mph57%29.97 "Hg28 mi
11:00 AM64 °FMild.6 mph65%30.00 "Hg17 mi
10:00 AM62 °FCool.1 mph73%30.01 "Hg17 mi
9:00 AM61 °FCool.1 mph76%30.01 "Hg14 mi
8:00 AM56 °FCool.1 mph93%30.03 "Hg12 mi
7:00 AM50 °FFog.1 mph100%30.02 "Hg7 mi
6:00 AM47 °FFog.2 mph100%30.03 "Hg4 mi
5:00 AM47 °FCool.2 mph99%30.03 "Hg3 mi
3:00 AM51 °FCool.3 mph97%30.02 "Hg7 mi
2:00 AM52 °FCool.6 mph94%30.01 "Hg15 mi
1:00 AM54 °FCool.2 mph92%30.01 "Hg12 mi
12:00 AM58 °FCool.2 mph89%30.00 "Hg19 mi
11:00 PM
Sat, Jul 4
60 °FCool.3 mph89%29.99 "Hg19 mi
10:00 PM62 °FRain showers. Cloudy.5 mph90%29.98 "Hg28 mi
9:00 PM64 °FMild.1 mph79%29.97 "Hg16 mi
8:00 PM65 °FMild.6 mph78%29.95 "Hg22 mi
7:00 PM63 °FMild.1 mph87%29.96 "Hg22 mi
6:00 PM62 °FCool.1 mph92%29.94 "Hg14 mi
5:00 PM60 °FCool.3 mph96%29.95 "Hg10 mi
4:00 PM58 °FCool.3 mph100%29.95 "Hg11 mi
3:00 PM57 °FCool.7 mph100%29.95 "Hg12 mi
Weather by CustomWeather, © 2015

See weather overviewHow to use our weather pages